Prescott, AZ

6:35 PM MST on September 25, 2016 (GMT -0700)
Love

Weather History for KPRC - February, 2012

Change the Weather History Date:

Sunday, February 12, 2012

  Actual Average Record
Temperature  
Mean Temperature 41 °F 41 °F  
Max Temperature 52 °F 54 °F 75 °F (2016)
Min Temperature 30 °F 28 °F 8 °F (1948)
Degree Days  
Heating Degree Days 24    
Month to date heating degree days  
Since 1 July heating degree days  
Cooling Degree Days 0    
Month to date cooling degree days  
Year to date cooling degree days  
Moisture  
Dew Point 26 °F    
Average Humidity 51    
Maximum Humidity 69    
Minimum Humidity 35    
Precipitation  
Precipitation 0.00 in 0.05 in 0.50 in (2003)
Month to date precipitation 0.52  
Year to date precipitation 1.64  
Sea Level Pressure  
Sea Level Pressure 29.77 in    
Wind  
Wind Speed 9 mph (SSW)    
Max Wind Speed 26 mph    
Max Gust Speed 32 mph    
Visibility 10 miles    
Events      
T = Trace of Precipitation, MM = Missing Value Source: NWS Daily Summary

Daily Weather History Graph

Daily Weather History Graph

Search for Another Location

Airport or City:

Trip Planner

Search our weather history database for the weather conditions in past years. The results will help you decide how hot, cold, wet, or windy it might be!

Date:

Astronomy

Feb. 12, 2012 Rise Set
Actual Time 7:18 AM MST 6:09 PM MST
Civil Twilight 6:52 AM MST 6:35 PM MST
Nautical Twilight 6:23 AM MST 7:05 PM MST
Astronomical Twilight 5:53 AM MST 7:34 PM MST
Moon 11:53 PM MST (2/12) 9:56 AM MST (2/12)
Length of Visible Light 11h 42m
Length of Day
10h 50m
Waning Gibbous, 71% of the Moon is Illuminated
Feb 12
Waning Gibbous
Feb 14
Last Quarter
Feb 21
New
Feb 29
First Quarter
Mar 8
Full

Hourly Weather History & Observations

Time (MST) Temp. Windchill Dew Point Humidity Pressure Visibility Wind Dir Wind Speed Gust Speed Precip Events Conditions
12:53 AM 46.9 °F - 23.0 °F 39% 29.69 in 10.0 mi SSW 9.2 mph - N/A   Clear
1:53 AM 45.0 °F 40.6 °F 24.1 °F 44% 29.69 in 10.0 mi SSW 8.1 mph - N/A   Clear
2:53 AM 42.1 °F 37.1 °F 23.0 °F 47% 29.71 in 10.0 mi WSW 8.1 mph - N/A   Clear
3:53 AM 39.0 °F 34.8 °F 23.0 °F 53% 29.70 in 10.0 mi SW 5.8 mph - N/A   Clear
4:53 AM 39.9 °F 35.8 °F 24.1 °F 53% 29.70 in 10.0 mi East 5.8 mph - N/A   Clear
5:53 AM 37.9 °F - 23.0 °F 55% 29.73 in 10.0 mi Calm Calm - N/A   Clear
6:53 AM 30.9 °F 26.2 °F 21.9 °F 69% 29.77 in 10.0 mi South 4.6 mph - N/A   Clear
7:53 AM 37.0 °F 31.6 °F 24.1 °F 59% 29.78 in 10.0 mi SSE 6.9 mph - N/A   Clear
8:53 AM 43.0 °F 37.7 °F 26.1 °F 51% 29.79 in 10.0 mi SSW 9.2 mph - N/A   Clear
9:53 AM 46.0 °F 39.6 °F 26.1 °F 46% 29.77 in 10.0 mi South 15.0 mph - N/A   Partly Cloudy
10:53 AM 48.9 °F - 26.1 °F 41% 29.77 in 10.0 mi South 9.2 mph 16.1 mph N/A   Partly Cloudy
11:53 AM 50.0 °F - 24.1 °F 36% 29.77 in 10.0 mi WSW 13.8 mph - N/A   Mostly Cloudy
12:53 PM 51.1 °F - 24.1 °F 35% 29.74 in 10.0 mi SSW 12.7 mph 20.7 mph N/A   Mostly Cloudy
1:53 PM 52.0 °F - 25.0 °F 35% 29.72 in 10.0 mi SW 17.3 mph 21.9 mph N/A   Mostly Cloudy
2:53 PM 50.0 °F - 27.0 °F 41% 29.73 in 10.0 mi SW 26.5 mph 32.2 mph N/A   Scattered Clouds
3:53 PM 48.0 °F - 30.0 °F 50% 29.76 in 10.0 mi WSW 19.6 mph 31.1 mph N/A   Scattered Clouds
4:53 PM 48.0 °F - 28.9 °F 48% 29.78 in 10.0 mi WSW 17.3 mph 25.3 mph N/A   Mostly Cloudy
5:53 PM 44.1 °F 39.0 °F 28.9 °F 55% 29.81 in 10.0 mi WSW 9.2 mph - N/A   Scattered Clouds
6:53 PM 42.1 °F 40.2 °F 28.0 °F 58% 29.86 in 10.0 mi West 3.5 mph - N/A   Scattered Clouds
7:53 PM 42.1 °F 37.1 °F 28.9 °F 60% 29.84 in 10.0 mi SSW 8.1 mph - N/A   Scattered Clouds
8:53 PM 41.0 °F 35.8 °F 28.9 °F 62% 29.84 in 10.0 mi SSW 8.1 mph - N/A   Scattered Clouds
9:53 PM 39.9 °F 36.7 °F 28.9 °F 65% 29.85 in 10.0 mi South 4.6 mph - N/A   Scattered Clouds
10:53 PM 39.0 °F 34.0 °F 28.9 °F 67% 29.84 in 10.0 mi South 6.9 mph - N/A   Clear
11:53 PM 39.9 °F 33.9 °F 28.9 °F 65% 29.84 in 10.0 mi SW 9.2 mph - N/A   Clear